This demonstration page uses our WeatherBlox Daily Observations layout. Learn more.

Left ArrowRight Arrow

Hourly Observations for January 20, 2017

Temp ( °F °C ) Dew Point ( °F °C ) Humidity (%) Winds ( mph kmh ) Pressure ( in mb ) Visibility ( mi km ) Precip ( " mm )
12:59 am 00:59 Mostly Cloudy 42 5.6 38 3.3 85 85 Calm 30.04 1017 8 13 0.00 0.00
1:59 am 01:59 Clear with Mist and Fog 41 5 38 3.3 89 89 SE 6 9 30.02 1017 5 8 0.00 0.00
2:59 am 02:59 Mostly Cloudy 43 6.1 39 3.9 86 86 SSW 3 6 30.02 1017 7 11 0.00 0.00
3:59 am 03:59 Mostly Cloudy with Mist and Fog 43 6.1 40 4.4 89 89 SSE 5 7 30.00 1016 6 10 0.00 0.00
4:59 am 04:59 Clear with Mist and Fog 44 6.7 41 5 89 89 SSE 3 6 29.99 1016 5 8 0.00 0.00
5:59 am 05:59 Mostly Cloudy with Mist and Fog 44 6.7 41 5 89 89 S 3 6 30.00 1016 5 8 0.00 0.00
6:59 am 06:59 Mostly Cloudy with Mist and Fog 44 6.7 42 5.6 93 93 ESE 3 6 29.99 1016 6 10 0.00 0.00
7:59 am 07:59 Cloudy with Haze 46 7.8 41 5 83 83 S 5 7 29.99 1016 5 8 0.00 0.00
8:59 am 08:59 Cloudy with Haze 48 8.9 42 5.6 80 80 SSE 7 11 30.00 1016 6 10 0.00 0.00
9:59 am 09:59 Cloudy 50 10 42 5.6 74 74 VRB 6 9 29.98 1015 8 13 0.00 0.00
10:59 am 10:59 Cloudy 54 12.2 42 5.6 64 64 SE 7 11 29.96 1014 10 16 0.00 0.00
12:31 pm 12:31 Cloudy 51 10.6 47 8.3 86 86 ESE 3 6 29.94 1014 3 4 0.04 1.02
12:59 pm 12:59 Mostly Cloudy with Light Rain 51 10.6 47 8.3 86 86 SE 3 6 29.92 1013 2 3 0.09 2.29
1:07 pm 13:07 Cloudy with Light Rain 51 10.6 47 8.3 86 86 ESE 3 6 29.91 1013 3 5 0.01 0.25
1:30 pm 13:30 Cloudy with Light Rain 51 10.6 48 8.9 89 89 ENE 3 6 29.91 1013 2 3 0.03 0.76
1:51 pm 13:51 Cloudy with Light Rain 50 10 47 8.3 89 89 NE 5 7 29.91 1013 2 2 0.05 1.27
1:59 pm 13:59 Cloudy with Light Rain 50 10 47 8.3 89 89 NE 5 7 29.90 1013 2 3 0.05 1.27
2:13 pm 14:13 Cloudy with Light Rain 49 9.4 46 7.8 90 90 ENE 6 9 29.91 1013 2 3 0.01 0.25
2:20 pm 14:20 Cloudy with Light Rain 49 9.4 46 7.8 90 90 E 5 7 29.91 1013 2 3 0.01 0.25
2:59 pm 14:59 Cloudy with Mist and Fog 49 9.4 46 7.8 90 90 E 7 11 29.89 1012 3 4 0.01 0.25
3:04 pm 15:04 Cloudy with Mist and Fog 49 9.4 46 7.8 90 90 ENE 7 11 29.88 1012 2 3 0.00 0.00
3:14 pm 15:14 Cloudy with Mist and Fog 48 8.9 46 7.8 93 93 ENE 6 9 29.91 1013 2 3 0.00 0.00
3:42 pm 15:42 Cloudy with Mist and Fog 48 8.9 45 7.2 89 89 E 9 15 29.88 1012 2 3 0.01 0.25
3:59 pm 15:59 Cloudy with Mist and Fog 47 8.3 45 7.2 93 93 E 8 13 29.88 1012 2 3 0.01 0.25
4:04 pm 16:04 Cloudy with Mist and Fog 47 8.3 45 7.2 93 93 E 9 15 29.88 1012 2 3 0.00 0.00
4:59 pm 16:59 Cloudy with Drizzle 47 8.3 45 7.2 93 93 E 9 15 29.89 1012 2 3 0.00 0.03
5:23 pm 17:23 Cloudy with Mist and Fog 47 8.3 45 7.2 93 93 E 6 9 29.91 1013 4 6 0.00 0.03
5:59 pm 17:59 Cloudy with Mist and Fog 47 8.3 45 7.2 93 93 E 7 11 29.91 1013 4 6 0.00 0.03
6:59 pm 18:59 Cloudy with Mist and Fog 48 8.9 45 7.2 89 89 E 3 6 29.91 1013 4 6 0.00 0.00
7:23 pm 19:23 Cloudy with Mist and Fog 47 8.3 45 7.2 93 93 SE 3 6 29.91 1013 3 5 0.00 0.00
7:50 pm 19:50 Cloudy with Mist and Fog 47 8.3 45 7.2 93 93 Calm 29.91 1013 1 2 0.00 0.00
7:59 pm 19:59 Cloudy with Mist and Fog 46 7.8 44 6.7 93 93 Calm 29.92 1013 1 2 0.00 0.00
8:12 pm 20:12 Cloudy with Mist and Fog 46 7.8 45 7.2 96 96 Calm 29.91 1013 2 2 0.00 0.00
8:25 pm 20:25 Cloudy with Mist and Fog 47 8.3 44 6.7 90 90 Calm 29.94 1014 2 3 0.00 0.00
8:59 pm 20:59 Cloudy with Mist and Fog 48 8.9 45 7.2 89 89 NNW 6 9 29.93 1014 2 3 0.00 0.00
9:46 pm 21:46 Cloudy with Mist and Fog 48 8.9 46 7.8 93 93 Calm 29.94 1014 3 5 0.00 0.00
9:55 pm 21:55 Cloudy with Mist and Fog 48 9 46 8 94 94 N 3 6 29.94 1014 3 4 0.00 0.00
9:59 pm 21:59 Cloudy with Mist and Fog 48 8.9 46 7.8 93 93 N 3 6 29.93 1013 3 4 0.00 0.00
10:41 pm 22:41 Cloudy with Mist and Fog 48 8.9 46 7.8 93 93 Calm 29.94 1014 3 5 0.00 0.00
10:59 pm 22:59 Cloudy with Mist and Fog 48 8.9 46 7.8 93 93 N 3 6 29.94 1014 3 5 0.00 0.00
11:15 pm 23:15 Cloudy with Mist and Fog 48 8.9 46 7.8 93 93 Calm 29.94 1014 3 4 0.00 0.00
11:59 pm 23:59 Cloudy with Mist and Fog 47 8.3 46 7.8 97 97 Calm 29.94 1014 3 4 0.00 0.00

Powered by AerisWeather